DECAYED

OBJECT G, 61443 (Decayed)

Orbit data source: Space-Track

You're viewing an Uncataloged Satellite

Recently launched and/or uncataloged satellites may have evolving metadata. Metadata may include but not limited to: Owner, Maufacturer, Bus, Motor, and Mission.

OBJECT G, 61443 was a satellite owned by CASC (CN) in LEO that was launched on Tue, 24 Sep 2024 UTC launched from the Jiuquan Satellite Launch Center, China (JSC). Unknown objects in Earth's orbit typically refer to objects detected orbiting the Earth but have not yet been identified or cataloged. These objects could be anything from previously untracked satellites, spent rocket stages, debris from satellite collisions, or even natural meteoroids temporarily captured by Earth's gravity. This object's orbit decayed before it could be identified.

Not visible in the next 10 days
OBJECT G details
Identifier
61443, 2024-174G
Orbit
Decayed
Last TLE update1 month ago
Origin
Flag of CNCASC (CN / PRC)
ManufacturerCAS
MissionDecayed spacecraft
Bus & MotorUnknown
MassUnknown
Launch date (UTC)
2024-09-24 (3 months ago)
Launch vehicleUnknown
Launch site
Jiuquan Satellite Launch Center, China (JSC)
Object typeUnknown
Shape & HBRUnknown
Radar Cross SectionRCS unknown

Expand to show TLE details & history

TLE from 1 month ago
0 OBJECT G
1 61443U 24174G   24311.05781089  .11536702  23229-5  77814-3 0  9993
2 61443  97.4009 319.3428 0032307 235.3272 124.4980 16.37015076  6390
Epoch: 2024-11-06T01:23Z
Definitive object data (Epoch: 2024-11-06T01:23:14.86Z)
Latitude-0.00009°
Longitude-107.2294°
Altitude189.04 km
Speed7.786 km/s
True Right ascension21h 17m 22s
True Declination0° 00' 00"
Sunlit
Object was in daylight at TLE epoch
Visualization observer readout
Observer readout values are unavailable because the object's trajectory could not be propagated. This is usually caused when the trajectory data is faulty or the object's orbit has decayed.
Visualization observer readout
Observer readout values are unavailable because the object's trajectory could not be propagated. This is usually caused when the trajectory data is faulty or the object's orbit has decayed.
Orbital elements
Apogee altitude191.723 km
Perigee altitude149.409 km
Semi-major axis6,548.703 km
Eccentricity0.0032307
Inclination97.4009°
RAAN319.3428°
Arg. of periapsis235.3272°
True anomaly124.80241°
Mean anomaly124.498°
Eccentric anomaly124.65027°
Mean motion4.09553 °/min
BSTAR0.00077814
Orbital period87.9 mins
Loading maneuver chart data...
Loading historical data...
Loading historical data...
Loading historical data...
Loading historical data...
Loading historical data...
Loading historical data...
Loading historical data...

OBJECT G Visibility forecast

Observer location: undefined°, undefined

This satellite is decayed
Span
Click to sort rows by Start time (UTC) header in descending order
Start Az.
Max El. time (UTC)
Max El. Az.
Max El.
End time (UTC)
End Az.
|